Flag for China Weather past 2 weeks in Kashgar, Xinjiang, China

Now
59 °F

Clear.


Feels Like: 58 °F
Forecast: 51 / 66 °F
Wind: 8 mph from West

Location: Kashi Airport

Current Time: Mar 28, 2015 at 12:44:24 PM

Latest Report: Mar 28, 2015 at 11:00 AM


Visibility: 4 mi

Pressure: 29.92 "Hg

Humidity: 21%

Dew point: 19 °F

Location of KashgarLocation

Historic Weather in Kashgar — Graph

°F

Kashgar temperature yesterday

Maximum temperature yesterday: 68 °F (at 4:00 PM)
Minimum temperature yesterday: 54 °F (at 7:00 AM)
Average temperature yesterday: 61 °F

Past Weeks' High & Low Weather Summary

 TemperatureHumidityPressure
High73 °F (Mar 25, 5:00 PM)42% (Mar 14, 7:00 AM)30.39 "Hg (Mar 14, 7:00 AM)
Low37 °F (Mar 14, 8:00 AM)3% (Mar 16, 7:00 PM)29.74 "Hg (Mar 15, 6:00 PM)
Average55 °F19%30.09 "Hg
* Reported Mar 13 11:00 AM — Mar 28 11:00 AM, Kashgar, Weather by CustomWeather, © 2015

Note: Actual official high and low records may vary slightly from our data, if they occured in-between our weather recording intervals... More about our weather records

Advertising

Kashgar weather history for previous 24 hours

 ConditionsComfort  
Time TempWeatherWind HumidityBarometerVisibility
11:00 AM
Sat, Mar 28
59 °FClear.8 mph21%29.92 "Hg4 mi
10:00 AM55 °FClear.3 mph24%29.92 "Hg4 mi
9:00 AM55 °FClear.8 mph18%29.92 "Hg4 mi
8:00 AM54 °FClear.8 mph21%29.89 "Hg4 mi
7:00 AM54 °FClear.10 mph19%29.92 "Hg4 mi
6:00 AM54 °FPassing clouds.8 mph19%29.92 "Hg4 mi
5:00 AM55 °FPassing clouds.10 mph19%29.92 "Hg4 mi
4:00 AM55 °FRefreshingly cool.10 mph19%29.95 "Hg6 mi
3:00 AM57 °FRefreshingly cool.8 mph18%29.98 "Hg5 mi
2:00 AM55 °FRefreshingly cool.8 mph21%29.98 "Hg4 mi
1:00 AM55 °FRefreshingly cool.6 mph19%30.01 "Hg5 mi
12:00 AM57 °FPassing clouds.3 mph18%30.04 "Hg3 mi
11:00 PM
Fri, Mar 27
59 °FPassing clouds.No wind18%30.04 "Hg3 mi
10:00 PM63 °FPassing clouds.1 mph15%30.04 "Hg3 mi
9:00 PM66 °FScattered clouds.1 mph12%30.04 "Hg3 mi
8:00 PM68 °FScattered clouds.3 mph11%30.04 "Hg3 mi
7:00 PM68 °FDuststorm.6 mph11%30.04 "Hg3 mi
6:00 PM68 °FDuststorm.8 mph11%30.07 "Hg3 mi
5:00 PM68 °FDuststorm.10 mph11%30.07 "Hg3 mi
4:00 PM68 °FDuststorm.13 mph10%30.12 "Hg3 mi
3:00 PM66 °FDuststorm.15 mph11%30.15 "Hg3 mi
2:00 PM64 °FClear.15 mph13%30.18 "Hg4 mi
1:00 PM63 °FClear.15 mph13%30.21 "Hg5 mi
12:00 PM59 °FClear.17 mph17%30.24 "Hg5 mi
Weather by CustomWeather, © 2015

See weather overviewHow to use our weather pages